This demonstration page uses our WeatherBlox Daily Observations layout. Learn more.

Left ArrowRight Arrow

38.88101, -77.10428

Hourly Observations for July 18, 2016

Temp ( °F °C ) Dew Point ( °F °C ) Humidity (%) Winds ( mph kmh ) Pressure ( in mb ) Visibility ( mi km ) Precip ( " mm )
12:52 am 00:52 Mostly Cloudy 80 26.7 72 22.2 76 76 S 9 15 30.14 1021 10 16.0934 0 0
1:52 am 01:52 Mostly Cloudy 81 27.2 72 22.2 74 74 SSW 10 17 30.14 1021 10 16.0934 0 0
2:52 am 02:52 Mostly Cloudy 79 26.1 71 21.7 77 77 SSW 8 13 30.14 1021 10 16.0934 0 0
3:52 am 03:52 Mostly Cloudy 78 25.6 71 21.7 79 79 SSW 6 9 30.14 1021 10 16.0934 0 0
4:52 am 04:52 Mostly Cloudy 77 25 71 21.7 82 82 SW 5 7 30.13 1020 7 11.26538 0 0
5:52 am 05:52 Mostly Cloudy 77 25 71 21.7 82 82 SW 3 6 30.14 1021 9 14.48406 0 0
6:52 am 06:52 Partly Cloudy 78 25.6 72 22.2 82 82 SW 7 11 30.15 1021 7 11.26538 0 0
7:52 am 07:52 Partly Cloudy 80 26.7 73 22.8 79 79 SW 8 13 30.16 1021 8 12.87472 0 0
8:52 am 08:52 Partly Cloudy 82 27.8 75 23.9 79 79 S 7 11 30.14 1021 9 14.48406 0 0
9:52 am 09:52 Partly Cloudy 84 28.9 76 24.4 77 77 S 8 13 30.14 1021 10 16.0934 0 0
10:52 am 10:52 Mostly Cloudy 87 30.6 76 24.4 70 70 S 12 19 30.14 1021 10 16.0934 0 0
11:52 am 11:52 Cloudy 90 32.2 76 24.4 63 63 S 14 22 30.13 1020 10 16.0934 0 0
12:52 pm 12:52 Cloudy 92 33.3 75 23.9 58 58 S 14 22 30.11 1020 10 16.0934 0 0
1:52 pm 13:52 Cloudy 93 33.9 71 21.7 49 49 S 15 24 30.09 1019 10 16.0934 0 0
2:52 pm 14:52 Mostly Cloudy 94 34.4 72 22.2 49 49 SSW 13 20 30.08 1019 10 16.0934 0 0
3:52 pm 15:52 Mostly Cloudy 94 34.4 70 21.1 46 46 W 12 19 30.07 1018 10 16.0934 0 0
4:22 pm 16:22 Mostly Cloudy with Thunderstorms 90 32 68 20 49 49 NW 31 50 30.12 1020 10 16.0934 0 0
4:25 pm 16:25 Partly Cloudy with Thunderstorms 85 29.4 66 18.9 53 53 WNW 32 52 30.12 1020 10 16.0934 0 0
4:33 pm 16:33 Mostly Cloudy with Thunderstorms 80 26.7 66 18.9 62 62 WNW 30 48 30.15 1021 2 3.21868 0 0.0254
4:36 pm 16:36 Cloudy with Heavy Thunderstorms 75 23.9 68 20 79 79 W 20 31 30.15 1021 1.25 2.011675 0.01 0.254
4:45 pm 16:45 Cloudy with Heavy Thunderstorms 74 23.3 69 20.6 85 85 WSW 13 20 30.15 1021 1 1.60934 0.21 5.334
4:50 pm 16:50 Cloudy with Heavy Thunderstorms 73 23 70 21 89 89 SSW 14 22 30.15 1021 3 4.82802 0 0
4:52 pm 16:52 Cloudy with Heavy Thunderstorms 73 22.8 69 20.6 87 87 SSW 12 19 30.14 1021 4 6.43736 0.3 7.62
4:55 pm 16:55 Cloudy with Thunderstorms 73 22.8 68 20 84 84 SW 10 17 30.12 1020 4 6.43736 0.01 0.254
5:15 pm 17:15 Cloudy with Light Rain 73 22.8 68 20 84 84 S 8 13 30.12 1020 7 11.26538 0.09 2.286
5:52 pm 17:52 Mostly Cloudy with Light Rain 75 23.9 68 20 79 79 S 5 7 30.08 1019 10 16.0934 0.14 3.556
6:29 pm 18:29 Mostly Cloudy 76 24.4 70 21.1 82 82 Calm 30.06 1018 10 16.0934 0 0.0254
6:52 pm 18:52 Mostly Cloudy 79 26 72 22 79 79 W 5 7 30.06 1018 10 16.0934 0 0
7:52 pm 19:52 Mostly Cloudy 80 26.7 70 21.1 71 71 WSW 5 7 30.06 1018 10 16.0934 0 0
8:52 pm 20:52 Mostly Cloudy 77 25 73 22.8 88 88 S 7 11 30.08 1019 10 16.0934 0 0
9:52 pm 21:52 Mostly Cloudy 77 25 72 22.2 85 85 S 10 17 30.09 1019 10 16.0934 0 0
10:52 pm 22:52 Mostly Cloudy 77 25 71 21.7 82 82 SW 6 9 30.09 1019 10 16.0934 0 0
11:52 pm 23:52 Mostly Cloudy 76 24.4 71 21.7 85 85 S 9 15 30.09 1019 10 16.0934 0 0

Powered by AerisWeather